Regional Weather Roundup
Issued by NWS

Home | Current Version | Previous Version | Graphics & Text | Print | Product List | Glossary On
Versions: 1 2 3 4 5 6 7 8 9 10 11 12 13 14 15 16 17 18 19 20 21 22 23 24 25 26 27 28 29 30 31 32 33 34 35 36 37 38 39 40 41 42 43 44 45 46 47 48 49 50
000
ASUS44 KMEG 221910
RWRTN
TENNESSEE HOURLY STATE WEATHER ROUNDUP
NATIONAL WEATHER SERVICE MEMPHIS TN
200 PM CDT MON SEP 22 2014

TNZ002-004-019-021-049-052-054-088>092-222000-
WEST TENNESSEE

CITY           SKY/WX    TMP DP  RH WIND       PRES   REMARKS
MEMPHIS INTL   MOSUNNY   77  52  41 NE6G17    30.20F
NWS MEMPHIS      N/A     74 N/A N/A MISG        N/A
JACKSON        SUNNY     76  51  41 N14       30.19F
DYERSBURG      SUNNY     73  46  38 N14       30.22F
UNION CITY     SUNNY     72  50  46 N9        30.21F
PARIS          SUNNY     72  48  43 VRB6      30.21F
HUNTINGDON     SUNNY     71  46  40 VRB7      30.19F
LEXINGTON      SUNNY     73  52  46 NE9       30.18F
SAVANNAH       SUNNY     77  52  41 NE9       30.18F
$$

TNZ008-025-027-028-033-062-065-066-222000-
NORTH MIDDLE TENNESSEE

CITY           SKY/WX    TMP DP  RH WIND       PRES   REMARKS
NASHVILLE      MOSUNNY   74  47  38 N9G18     30.19F
DICKSON        SUNNY     72  46  40 NE9       30.19F
PORTLAND       SUNNY     70  46  43 N9        30.20F
CLARKSVILLE    SUNNY     73  47  39 N10       30.20F
LEBANON        SUNNY     71  48  43 N10       30.18F
SMYRNA         SUNNY     74  48  39 N14       30.19F
MURFREESBORO   SUNNY     72  46  39 N6        30.17
COOKEVILLE     SUNNY     70  52  52 VRB5      30.18F
GALLATIN       SUNNY     72  49  44 N10       30.21F
CROSSVILLE     SUNNY     70  45  40 N9        30.19F
$$

TNZ061-075-076-078-094-096-097-222000-
SOUTH MIDDLE TENNESSEE

CITY           SKY/WX    TMP DP  RH WIND       PRES   REMARKS
LEWISBURG      SUNNY     74  48  39 NE10      30.17F
FAYETTEVILLE   SUNNY     72  46  40 NE13      30.16F
TULLAHOMA      SUNNY     72  48  43 N6        30.18S
WINCHESTER     SUNNY     72  50  46 N12       30.17S
MCMINNVILLE    SUNNY     70  52  52 VRB7      30.18F
COLUMBIA       SUNNY     73  48  40 N7        30.17S
SHELBYVILLE    SUNNY     75  50  41 NE12      30.18F
$$

TNZ017-018-042-046-047-222000-
NORTHEAST TENNESSEE

CITY           SKY/WX    TMP DP  RH WIND       PRES   REMARKS
TRI CITIES     MOSUNNY   70  46  42 N8        30.14F
ELIZABETHTON   CLEAR     68  46  45 VRB5      30.14S
$$

TNZ012-013-036-069-073-074-222000-
CENTRAL EAST TENNESSEE

CITY           SKY/WX    TMP DP  RH WIND       PRES   REMARKS
KNOXVILLE      MOSUNNY   72  45  37 N5        30.13F
OAK RIDGE      SUNNY     73  47  39 E8        30.15F
GATLINBURG     CLEAR     72  45  37 NW8       30.13S
MORRISTOWN     PTCLDY    70  48  46 VRB3      30.15F
$$

TNZ083-085-099-222000-
SOUTHEAST TENNESSEE

CITY           SKY/WX    TMP DP  RH WIND       PRES   REMARKS
CHATTANOOGA    MOSUNNY   75  49  39 N12G18    30.12F
$$

SKY/WX REPORTED AS FAIR MEANS FEW OR NO CLOUDS BELOW
12 THOUSAND FEET.




USA.gov is the U.S. government's official web portal to all federal, state and local government web resources and services.